Tracking 19709 objects as of 19-Jun-2019
HD Live streaming from Space Station
objects crossing your sky now

COSMOS 1375 DEB

Track COSMOS 1375 DEB now!
10-day predictions


NORAD ID: 17799
Int'l Code: 1982-055AR
Perigee: 900.9 km
Apogee: 952.3 km
Inclination: 65.8 °
Period: 103.4 minutes
Semi major axis: 7297 km
RCS: 0.043 m2 (small)
Launch date: June 6, 1982
Source: Commonwealth of Independent States (former USSR) (CIS)
Launch site: PLESETSK MISSILE AND SPACE COMPLEX (PKMTR)

Note: This is SATELLITE DEBRIS
aabbcc
Your satellite tracking list
Your tracking list is empty




NASA's NSSDC Master Catalog

Two Line Element Set (TLE):
1 17799U 82055AR  19169.92827755 +.00000072 +00000-0 +12064-3 0  9999
2 17799 065.8394 353.4851 0035235 262.0103 173.6903 13.92624747703713
Source of the keplerian elements: AFSPC